Find Starlink 32040

NORAD ID: 60109 Int'l Des: 2024-117 Owner: SPXS Country: US Constellation: starlink operational
LEOCIRCULAR

实时位置

正在加载3D地球...

关于 Starlink 32040

正在加载描述...

即将过境

Passes for default location (London). Set your location on the main map for personalized predictions.

高度历史

Loading altitude history...

两行轨道根数

1 60109U 24117U 26127.16048920 .00049752 00000-0 16935-2 0 9992
2 60109 53.1609 125.1749 0003398 114.3083 245.8273 15.29949979105847
Epoch: May 7, 2026 • Age: 7 hours

当前状态

高度 476.3 km
速度 7.63 km/s
星下点 35.03°N, 113.53°W
发射日期 Jun 23, 2024
运行时间 1.8 years
类型 internet

技术详情

分类 Payload
质量 730.00 kg
干质量 700.00 kg
总质量 730.00 kg
长度 0.30 m
直径 4.10 m
跨度 29.00 m
形状 Box + pan
制造商 SPXS
平台类型 Starlink V2M
阶段状态 In Orbit
所有者/国家 SPXS/US

Most Searched